Poplar Bluff, MO

12:16 PM CST on November 20, 2017 (GMT -0600)
Poplar Bluff Municipal

Weather History for KPOF - February, 2014

Change the Weather History Date:

Thursday, February 6, 2014

  Actual Average Record
Temperature  
Mean Temperature 18 °F -  
Max Temperature 21 °F 44 °F 69 °F (1943)
Min Temperature 12 °F 24 °F 3 °F (1988)
Degree Days  
Heating Degree Days 48    
Moisture  
Dew Point 7 °F    
Average Humidity 64    
Maximum Humidity 74    
Minimum Humidity 57    
Precipitation  
Precipitation 0.00 in - - ()
Sea Level Pressure  
Sea Level Pressure 30.55 in    
Wind  
Wind Speed 8 mph (North)    
Max Wind Speed 13 mph    
Max Gust Speed -    
Visibility 10 miles    
Events      
Averages and records for this station are not official NWS values.
T = Trace of Precipitation, MM = Missing Value Source: NWS Daily Summary

Daily Weather History Graph

Daily Weather History Graph

Search for Another Location

Airport or City:

Trip Planner

Search our weather history database for the weather conditions in past years. The results will help you decide how hot, cold, wet, or windy it might be!

Date:

Astronomy

Feb. 06, 2014 Rise Set
Actual Time 6:58 AM CST 5:32 PM CST
Civil Twilight 6:31 AM CST 5:59 PM CST
Nautical Twilight 6:01 AM CST 6:29 PM CST
Astronomical Twilight 5:30 AM CST 7:00 PM CST
Moon 11:04 AM CST (2/6) 12:14 AM CST (2/6)
Length of Visible Light 11h 27m
Length of Day
10h 33m
Waxing Crescent, 49% of the Moon is Illuminated
Feb 6
Waxing Crescent
Feb 6
First Quarter
Feb 14
Full
Feb 22
Last Quarter
Mar 1
New

Hourly Weather History & Observations

Time (CST) Temp. Windchill Dew Point Humidity Pressure Visibility Wind Dir Wind Speed Gust Speed Precip Events Conditions
12:53 AM 19.0 °F 7.5 °F 9.0 °F 65% 30.53 in 10.0 mi North 10.4 mph - N/A   Mostly Cloudy
1:25 AM 19.0 °F 7.5 °F 10.0 °F 68% 30.51 in 10.0 mi NNW 10.4 mph - N/A   Mostly Cloudy
1:53 AM 18.0 °F 6.1 °F 10.0 °F 71% 30.54 in 10.0 mi NNW 10.4 mph - N/A   Overcast
2:53 AM 18.0 °F 6.9 °F 8.1 °F 65% 30.55 in 10.0 mi North 9.2 mph - N/A   Overcast
3:20 AM 17.1 °F 4.3 °F 8.1 °F 68% 30.51 in 10.0 mi North 11.5 mph - N/A   Overcast
3:39 AM 17.1 °F 6.6 °F 7.0 °F 65% 30.52 in 10.0 mi North 8.1 mph - N/A   Overcast
3:53 AM 17.1 °F 6.6 °F 7.0 °F 65% 30.56 in 10.0 mi NNW 8.1 mph - N/A   Overcast
4:53 AM 16.0 °F 5.3 °F 7.0 °F 68% 30.58 in 10.0 mi North 8.1 mph - N/A   Overcast
5:53 AM 16.0 °F 2.3 °F 5.0 °F 62% 30.58 in 10.0 mi North 12.7 mph - N/A   Overcast
6:53 AM 15.1 °F 1.1 °F 5.0 °F 64% 30.61 in 10.0 mi NNW 12.7 mph - N/A   Overcast
7:53 AM 15.1 °F 3.3 °F 5.0 °F 64% 30.61 in 10.0 mi North 9.2 mph - N/A   Overcast
8:53 AM 15.1 °F 2.5 °F 6.1 °F 68% 30.63 in 10.0 mi NNW 10.4 mph - N/A   Overcast
9:53 AM 17.1 °F 5.0 °F 7.0 °F 65% 30.62 in 10.0 mi North 10.4 mph - N/A   Overcast
10:53 AM 17.1 °F 4.3 °F 6.1 °F 62% 30.62 in 10.0 mi North 11.5 mph - N/A   Overcast
11:53 AM 19.0 °F 10.0 °F 8.1 °F 62% 30.58 in 10.0 mi NNE 6.9 mph - N/A   Overcast
12:53 PM 19.0 °F 10.0 °F 7.0 °F 59% 30.56 in 10.0 mi NNW 6.9 mph - N/A   Overcast
1:53 PM 21.0 °F 16.2 °F 8.1 °F 57% 30.53 in 10.0 mi NNE 3.5 mph - N/A   Overcast
2:53 PM 21.0 °F 16.2 °F 10.0 °F 63% 30.53 in 10.0 mi South 3.5 mph - N/A   Mostly Cloudy
3:36 PM 21.0 °F 14.6 °F 9.0 °F 60% 30.50 in 10.0 mi ESE 4.6 mph - N/A   Overcast
3:53 PM 21.0 °F - 9.0 °F 60% 30.54 in 10.0 mi Calm Calm - N/A   Overcast
4:53 PM 21.0 °F 14.6 °F 10.0 °F 63% 30.54 in 10.0 mi SE 4.6 mph - N/A   Mostly Cloudy
5:53 PM 19.9 °F 14.9 °F 10.0 °F 65% 30.53 in 10.0 mi SE 3.5 mph - N/A   Clear
6:53 PM 18.0 °F - 10.9 °F 74% 30.53 in 10.0 mi Calm Calm - N/A   Clear
7:53 PM 16.0 °F 7.4 °F 6.1 °F 65% 30.52 in 10.0 mi East 5.8 mph - N/A   Clear
8:53 PM 16.0 °F 6.3 °F 3.9 °F 59% 30.54 in 10.0 mi NE 6.9 mph - N/A   Clear
9:53 PM 15.1 °F 6.4 °F 3.9 °F 61% 30.54 in 10.0 mi NE 5.8 mph - N/A   Clear
10:53 PM 14.0 °F 8.2 °F 5.0 °F 67% 30.54 in 10.0 mi NE 3.5 mph - N/A   Clear
11:53 PM 12.9 °F 3.8 °F 3.9 °F 67% 30.52 in 10.0 mi NNE 5.8 mph - N/A   Clear